CAPE
1141 949 720 1070 81 38 91 73 94 216 144 357 529 608 568 514 342 67 184 185 632 717 1182 1683 2415 2666 2217 2416 2382 2360 1796 1840 1741 1709 1200 812 758 912 859 759 743 750 1044 1106 740 491 422 480 452
984 825 776 1025 69 51 71 84 184 237 280 248 312 483 450 459 517 579 279 507 817 707 1169 1561 2280 2608 2296 2697 2451 2201 1314 1139 1158 1051 970 646 700 719 941 1385 1645 1640 1055 673 569 479 476 443 364
903 808 665 363 49 33 62 144 281 382 424 281 426 432 542 548 427 298 224 567 849 984 1422 1601 2333 2506 2539 2737 2268 1956 1559 779 916 639 612 658 794 979 1059 1057 1036 979 735 490 405 383 323 170 217
1139 597 665 91 28 20 80 270 378 452 300 348 338 364 578 592 525 432 289 585 897 1040 1498 1985 2581 2276 2907 2930 2473 1632 1441 938 983 972 665 779 1011 1137 898 777 803 584 330 636 201 162 268 486 590
730 641 269 32 24 21 124 194 341 436 477 374 339 390 584 637 586 255 437 630 915 1118 1377 1582 2600 2895 2761 2560 2130 2053 1376 1158 1097 1005 917 884 803 764 796 614 460 434 382 43 162 277 400 519 789
685 555 94 24 39 45 83 369 422 536 507 473 501 571 749 619 533 442 410 657 821 1159 1105 1344 1965 2435 2636 2218 1810 1559 1159 1056 959 877 944 940 839 577 668 262 339 245 67 209 278 424 657 923 1199
442 208 384 34 19 19 462 497 494 579 573 649 610 640 711 692 622 475 374 683 784 1096 1105 1121 1405 1623 2158 2363 1702 1462 1169 1094 1214 1295 978 673 454 378 578 324 386 199 352 530 729 940 1242 1564 1680
465 784 857 18 24 123 464 514 479 463 550 765 739 538 964 687 692 541 428 564 690 1046 1095 996 1017 1432 1515 1685 1843 1459 1241 1397 1461 1285 1095 703 555 658 565 902 670 518 784 1004 1300 1527 2152 2648 2464
98 78 177 30 178 640 564 449 628 688 796 675 671 778 763 749 630 465 392 428 563 795 848 1164 1195 1399 1453 1516 1533 1687 1855 1659 1587 1132 901 824 758 812 1160 1112 643 949 1289 1335 1605 2086 2707 2847 2509
190 44 107 42 423 700 822 816 698 560 818 858 906 947 808 798 638 448 328 321 343 515 636 809 774 859 1039 1431 1121 1119 1255 1377 1070 708 895 817 349 292 871 1190 1179 1389 1721 1519 2267 2523 2174 1591 813
278 65 67 60 29 745 840 820 736 695 780 840 958 1013 822 845 697 456 280 217 179 287 425 452 502 506 774 1183 943 916 980 1163 613 432 396 185 230 419 381 453 338 268 756 455 176 219 315 324 211
236 274 212 95 30 269 505 768 636 481 472 869 1048 945 909 953 860 607 413 280 166 142 215 233 250 335 384 706 599 754 965 512 275 304 278 549 501 149 252 210 138 189 140 77 151 223 375 475 480
241 216 245 28 23 27 214 631 504 627 724 913 999 1099 968 968 922 818 644 501 440 266 141 147 246 171 165 316 293 451 382 392 314 602 382 287 216 125 0 0 44 65 187 230 243 170 250 477 606
547 286 205 52 31 54 79 192 66 649 862 953 968 1006 1018 1044 986 929 856 686 565 399 245 195 296 166 26 66 182 141 249 437 468 398 171 144 96 85 110 108 131 76 229 240 97 26 335 522 639
283 259 119 27 43 58 18 19 12 649 756 936 943 908 926 943 978 908 907 792 613 467 345 291 202 192 62 18 19 1 131 144 74 167 176 133 68 17 190 160 91 84 50 0 0 27 237 175 692
251 104 56 28 35 31 3 0 3 677 572 767 877 877 884 896 961 996 925 864 717 533 462 339 207 160 150 48 21 22 102 156 37 121 178 103 122 2 155 231 110 31 0 0 4 141 158 168 552
160 150 47 81 56 52 17 0 2 496 603 548 620 708 709 772 849 1060 1071 972 857 754 548 447 275 195 186 149 43 14 43 124 71 42 136 135 91 81 19 164 194 73 4 0 204 272 251 490 770
258 177 80 17 9 4 17 0 4 14 371 741 723 681 651 692 748 987 1083 1120 1103 967 877 584 403 297 146 151 104 13 10 37 35 39 73 101 69 144 108 151 149 188 39 0 192 255 432 607 816
221 134 193 86 29 64 56 6 8 2 4 7 570 544 640 751 894 925 1092 1147 1141 1127 1085 786 525 354 242 155 115 53 7 23 11 39 43 29 25 37 97 170 182 142 57 91 62 252 790 758 728
265 234 158 125 213 184 200 162 67 60 43 24 33 116 487 755 836 1032 1074 1165 1139 1190 1129 919 644 450 301 177 75 57 10 1 13 0 0 0 19 0 42 97 243 191 71 77 107 276 794 877 684
324 338 130 192 418 303 249 167 96 86 63 56 29 90 222 388 561 844 1051 1116 1152 1165 1075 971 718 545 418 303 165 118 37 7 20 26 21 20 0 0 0 3 104 148 140 121 90 387 854 907 553
279 178 265 536 432 232 232 144 89 148 50 40 18 22 93 249 204 708 1063 1057 1059 1059 997 955 761 625 559 451 284 177 89 60 44 38 0 5 0 0 0 0 0 3 140 5 13 715 893 759 516
37 269 171 410 426 230 138 188 31 195 176 1 1 61 167 226 303 436 1043 1090 1063 1009 1013 924 810 760 730 573 360 224 156 140 39 2 45 20 9 0 0 0 0 0 10 9 53 702 775 640 716
222 207 194 278 67 18 0 32 13 0 0 10 13 22 22 251 382 409 846 887 957 1040 933 858 797 735 729 591 365 272 212 244 173 77 27 9 0 0 0 0 0 0 0 22 446 820 730 759 671
224 222 151 97 66 45 19 28 5 0 0 0 9 7 44 35 364 484 517 615 694 798 786 776 700 640 598 481 357 312 302 303 186 47 55 2 1 60 66 28 2 17 32 106 904 836 850 670 211
57 131 102 31 2 0 171 26 20 1 0 4 16 24 56 92 87 493 589 549 555 619 727 762 622 614 532 453 422 410 416 363 177 193 103 0 30 98 98 66 45 66 261 800 900 910 798 659 264
20 66 62 73 30 80 82 72 26 7 48 19 17 7 12 40 88 262 367 447 578 586 498 639 591 499 479 401 388 395 400 325 288 215 103 83 128 132 243 176 214 216 830 1004 868 765 339 108 57
254 131 121 111 90 43 50 90 22 0 0 3 3 32 47 19 67 369 446 503 512 613 539 636 652 490 509 459 388 325 334 368 388 239 149 26 294 445 805 799 743 899 880 899 618 291 9 0 0
20 227 231 145 132 126 31 45 2 0 11 42 66 63 110 42 107 477 553 555 704 637 651 724 756 679 685 592 509 434 375 380 214 178 147 59 220 204 476 679 941 728 758 679 567 189 0 0 0
0 56 147 58 52 94 76 21 0 21 29 7 56 75 107 127 334 556 549 442 457 544 673 759 774 794 796 741 683 355 203 183 192 222 137 215 246 448 418 690 444 385 401 450 146 47 0 0 0
CIN
-51 -74 -108 -66 -57 -23 -51 -60 -71 -68 -140 -120 -126 -108 -105 -74 -85 -106 -67 -38 -19 -4 -3 -1 -0 -0 -0 -0 -0 -0 -0 -0 -0 -0 -0 -4 -8 -4 -5 -14 -19 -15 -1 -1 -16 -30 -39 -30 -23
-104 -111 -102 -70 -31 -35 -43 -46 -69 -107 -139 -118 -106 -94 -114 -77 -71 -55 -69 -8 -5 -8 -6 -0 -0 -0 -0 -0 -0 -0 -0 -1 -1 -2 -0 -7 -12 -13 -10 -1 -0 -0 -2 -18 -26 -42 -39 -31 -30
-94 -113 -119 -91 -36 -31 -33 -41 -70 -94 -102 -73 -97 -79 -63 -45 -45 -79 -97 -13 -1 -3 -5 -1 -0 -0 -0 -0 -0 -0 -0 -19 -16 -20 -19 -17 -4 -3 -3 -2 -4 -6 -24 -41 -57 -59 -52 -65 -54
-106 -146 -101 -51 -36 -20 -39 -62 -102 -86 -83 -82 -85 -65 -23 -20 -31 -47 -74 -11 -2 -1 -0 -0 -0 -0 -0 -0 -0 -1 -2 -13 -11 -15 -29 -15 -3 -1 -8 -11 -13 -44 -73 -44 -87 -87 -68 -42 -32
-205 -157 -65 -44 -20 -14 -10 -44 -55 -70 -97 -85 -96 -58 -20 -21 -22 -86 -28 -5 -3 -0 -1 -2 -0 -0 -0 -0 -0 -0 -3 -12 -5 -18 -21 -29 -14 -5 -2 -16 -43 -53 -63 -108 -91 -84 -70 -50 -33
-120 -140 -45 -21 -13 -26 -20 -45 -64 -114 -118 -94 -84 -73 -27 -17 -57 -35 -30 -9 -21 -0 -6 -2 -0 -0 -0 -0 -0 -1 -17 -6 -11 -17 -12 -20 -38 -23 -9 -46 -54 -66 -119 -105 -93 -79 -54 -37 -31
-168 -72 -76 -33 -13 -23 -26 -50 -91 -123 -123 -92 -105 -63 -38 -35 -28 -34 -35 -7 -4 -0 -6 -6 -2 -2 -0 -0 -0 -0 -4 -12 -2 -0 -13 -26 -64 -56 -29 -45 -60 -91 -85 -74 -73 -59 -48 -38 -32
-252 -163 -93 -23 -22 -30 -48 -52 -85 -90 -100 -110 -126 -116 -33 -36 -20 -29 -38 -8 -9 -1 -3 -7 -9 -1 -2 -3 -0 -0 -0 -0 -0 -0 -10 -25 -60 -65 -50 -23 -54 -72 -67 -63 -57 -54 -39 -21 -32
-393 -122 -94 -17 -51 -53 -62 -87 -49 -113 -115 -104 -117 -138 -112 -57 -40 -45 -43 -16 -8 -1 -6 -0 -0 -0 -1 -3 -2 -0 -0 -0 -0 -0 -10 -23 -37 -63 -48 -34 -54 -53 -40 -50 -51 -43 -30 -25 -31
-230 -173 -135 -41 -82 -81 -59 -85 -81 -107 -147 -135 -156 -117 -104 -60 -48 -63 -98 -84 -61 -23 -4 -3 -19 -21 -9 -1 -3 -9 -0 -0 -1 -15 -4 -23 -68 -94 -76 -50 -41 -34 -36 -42 -31 -33 -40 -64 -105
-237 -199 -98 -81 -15 -102 -118 -122 -133 -164 -123 -168 -154 -93 -99 -57 -43 -57 -126 -159 -153 -100 -30 -18 -14 -23 -4 -1 -9 -4 -0 -0 -16 -31 -36 -65 -81 -65 -70 -72 -84 -102 -119 -110 -158 -35 -56 -45 -52
-166 -89 -117 -76 -4 -79 -93 -135 -151 -129 -147 -164 -161 -134 -85 -63 -52 -81 -69 -62 -73 -185 -121 -75 -41 -16 -29 -17 -25 -16 -1 -14 -50 -56 -61 -35 -31 -83 -34 -57 -106 -96 -44 -38 -19 -84 -32 -35 -38
-106 -124 -84 -88 -8 -51 -111 -104 -103 -108 -170 -172 -135 -114 -135 -112 -104 -132 -97 -75 -59 -70 -65 -99 -69 -49 -34 -24 -44 -21 -12 -29 -68 -19 -35 -22 -65 -78 -0 -0 -53 -20 -41 -21 -26 -11 -54 -55 -50
-96 -89 -81 -119 -67 -79 -113 -107 -88 -138 -191 -187 -165 -160 -157 -141 -132 -140 -131 -128 -110 -102 -87 -62 -79 -62 -54 -66 -39 -46 -34 -36 -25 -26 -41 -31 -49 -44 -28 -42 -20 -59 -31 -11 -22 -119 -63 -44 -46
-52 -56 -47 -55 -108 -118 -47 -97 -104 -184 -193 -195 -179 -173 -146 -142 -146 -184 -200 -169 -133 -131 -121 -94 -104 -104 -91 -58 -31 -3 -58 -68 -74 -41 -35 -31 -47 -26 -23 -27 -34 -37 -28 -0 -0 -70 -82 -103 -51
-33 -31 -59 -63 -86 -96 -10 -3 -53 -150 -181 -169 -157 -174 -177 -179 -183 -187 -194 -172 -132 -139 -153 -145 -88 -120 -52 -70 -28 -20 -60 -50 -68 -33 -16 -19 -52 -3 -11 -39 -64 -49 -0 -0 -11 -86 -97 -82 -62
-13 -21 -24 -83 -6 -65 -27 -0 -26 -122 -130 -149 -150 -157 -159 -171 -160 -173 -179 -171 -144 -54 -97 -100 -111 -174 -51 -30 -13 -3 -53 -36 -33 -33 -17 -10 -58 -65 -27 -27 -47 -53 -42 -0 -87 -69 -90 -47 -50
-20 -27 -41 -6 -45 -7 -83 -0 -51 -91 -104 -91 -102 -134 -131 -159 -156 -189 -132 -151 -115 -78 -62 -102 -105 -88 -93 -66 -27 -6 -13 -42 -34 -24 -27 -18 -18 -52 -63 -25 -58 -63 -72 -0 -89 -97 -68 -61 -49
-18 -19 -23 -31 -221 -42 -41 -34 -56 -44 -31 -131 -105 -96 -127 -138 -166 -128 -155 -128 -122 -82 -68 -80 -114 -93 -93 -95 -80 -35 -25 -8 -14 -30 -22 -32 -39 -49 -37 -47 -51 -53 -90 -74 -110 -93 -41 -61 -58
-43 -37 -37 -23 -171 -54 -62 -43 -15 -218 -67 -129 -124 -124 -111 -84 -98 -119 -109 -146 -138 -121 -87 -63 -95 -89 -80 -56 -67 -51 -7 -0 -6 -0 -0 -0 -60 -0 -41 -32 -42 -49 -77 -77 -71 -63 -33 -31 -46
-43 -27 -28 -20 -111 -152 -64 -88 -65 -162 -198 -112 -71 -95 -87 -66 -74 -156 -177 -156 -127 -130 -118 -73 -88 -90 -60 -18 -14 -20 -23 -21 -29 -49 -33 -37 -14 -0 -0 -18 -33 -51 -64 -77 -77 -50 -19 -19 -33
-10 -8 -75 -46 -58 -26 -133 -99 -67 -259 -325 -246 -131 -176 -145 -160 -98 -209 -217 -172 -152 -141 -113 -79 -89 -90 -46 -9 -19 -26 -37 -30 -23 -24 -0 -101 -0 -3 -0 -0 -0 -7 -54 -36 -71 -43 -22 -29 -31
-60 -113 -46 -78 -41 -35 -91 -105 -82 -354 -199 -77 -11 -126 -146 -159 -108 -198 -235 -226 -168 -169 -143 -105 -85 -70 -45 -24 -19 -26 -34 -39 -23 -3 -100 -97 -100 -0 -0 -0 -0 -0 -121 -59 -68 -22 -24 -26 -19
-56 -25 -39 -22 -37 -49 -0 -154 -92 -0 -0 -210 -335 -333 -146 -178 -196 -125 -213 -188 -180 -166 -152 -143 -110 -79 -50 -32 -43 -38 -65 -31 -22 -58 -86 -85 -0 -0 -0 -0 -0 -0 -3 -96 -14 -23 -24 -12 -18
-15 -26 -13 -15 -22 -49 -71 -60 -27 -0 -0 -0 -136 -276 -265 -225 -266 -195 -243 -202 -179 -216 -175 -153 -137 -116 -95 -60 -62 -45 -49 -37 -37 -46 -47 -38 -4 -73 -89 -38 -49 -179 -103 -73 -10 -9 -10 -13 -55
-14 -84 -11 -20 -31 -14 -70 -93 -23 -15 -0 -123 -118 -75 -69 -55 -122 -284 -146 -247 -215 -223 -198 -141 -165 -151 -136 -98 -68 -41 -27 -32 -39 -31 -25 -0 -73 -78 -64 -85 -64 -52 -60 -26 -5 -9 -6 -9 -35
-63 -93 -76 -21 -15 -51 -76 -170 -63 -24 -78 -78 -82 -52 -360 -35 -93 -420 -294 -203 -326 -233 -254 -233 -185 -176 -163 -122 -74 -48 -30 -42 -36 -22 -21 -21 -32 -57 -41 -74 -56 -73 -38 -12 -7 -2 -10 -87 -206
-17 -29 -64 -23 -21 -24 -79 -199 -105 -1 -6 -170 -107 -185 -75 -42 -451 -398 -320 -290 -231 -85 -268 -222 -121 -202 -153 -94 -73 -67 -48 -40 -27 -19 -9 -75 -39 -43 -21 -18 -30 -26 -25 -13 -5 -17 -285 -0 -85
-50 -55 -30 -26 -48 -13 -51 -72 -84 -0 -20 -261 -264 -335 -95 -185 -472 -388 -336 -262 -164 -233 -263 -215 -198 -165 -108 -59 -48 -37 -33 -32 -44 -36 -31 -81 -26 -45 -22 -31 -19 -15 -24 -23 -0 -32 -0 -0 -0
-2 -80 -45 -59 -43 -39 -32 -78 -4 -202 -74 -260 -187 -110 -148 -70 -519 -439 -343 -198 -151 -306 -238 -193 -158 -125 -86 -49 -22 -39 -58 -51 -53 -44 -47 -24 -49 -43 -49 -41 -36 -31 -22 -9 -72 -192 -0 -0 -0
Wind_Speed
11 12 15 15 nan nan nan nan nan 16 15 14 13 6 4 10 9 nan 4 5 8 6 10 11 15 14 14 15 14 13 12 11 12 9 8 8 8 8 7 5 4 6 6 7 6 7 7 7 7
10 11 14 16 nan nan nan nan 14 11 5 4 9 10 11 7 7 6 0 5 6 8 8 11 15 17 17 16 16 14 15 13 9 9 7 8 8 7 7 5 4 4 5 5 6 8 10 9 8
11 13 11 13 nan nan nan 5 5 1 5 8 6 8 7 7 4 3 5 5 6 5 6 11 17 18 18 18 17 16 14 15 13 10 8 6 6 6 6 5 4 4 5 7 9 11 11 10 10
13 12 10 nan nan nan nan 0 4 5 11 13 6 9 8 3 3 2 10 7 5 6 7 12 14 18 19 18 19 19 17 16 14 11 9 7 5 4 5 4 5 7 7 7 11 11 11 12 12
13 12 13 nan nan nan 10 8 4 8 9 9 6 6 8 9 13 12 10 8 7 4 8 11 13 15 16 18 20 18 18 17 15 14 9 9 8 6 5 6 8 8 7 nan 12 12 12 13 11
12 14 nan nan nan nan nan 9 10 13 11 6 7 8 8 8 13 9 8 9 4 5 4 7 16 17 17 20 21 17 16 16 14 13 10 8 8 8 8 8 8 8 nan 8 10 13 11 10 11
8 12 16 nan nan nan 4 1 4 4 4 2 6 5 5 4 9 10 8 10 8 5 1 2 5 11 18 21 22 17 12 12 12 11 9 6 7 8 8 7 8 8 6 7 10 9 11 11 12
7 11 17 nan nan 12 9 10 6 0 8 6 6 4 5 8 8 10 9 9 11 8 4 4 4 4 4 10 12 13 13 11 10 8 8 4 6 8 8 9 12 8 8 9 10 12 12 11 14
nan nan 15 nan 11 11 9 7 10 5 3 7 6 4 8 12 11 10 9 8 10 10 7 6 4 4 5 6 6 14 15 10 9 5 3 2 8 7 8 9 11 10 10 10 12 12 10 10 10
7 nan 14 nan 11 14 13 10 4 1 2 4 7 14 13 11 9 8 10 8 6 7 7 5 6 6 6 8 14 18 19 15 12 8 7 6 6 8 8 10 11 13 10 9 8 8 10 8 10
12 nan nan nan nan 16 13 8 3 11 4 10 16 18 14 13 7 7 7 8 7 7 4 4 7 5 4 5 2 16 23 15 14 12 10 8 6 7 7 7 6 5 7 3 1 3 8 9 11
6 10 17 nan nan 6 11 8 10 3 7 13 20 20 14 13 11 9 7 7 8 9 7 7 9 7 5 6 8 3 19 18 17 14 13 11 8 7 6 5 7 5 5 nan 4 6 6 5 9
7 11 19 nan nan nan 6 7 5 2 13 17 18 17 17 13 8 6 7 6 7 8 9 10 9 10 7 8 10 11 16 23 20 18 15 13 10 8 nan nan nan nan 2 3 3 3 7 8 11
8 17 13 nan nan nan nan 7 nan 6 23 23 25 16 13 13 9 4 4 6 8 11 14 14 10 9 nan nan 10 13 11 12 23 21 18 15 nan nan 9 8 5 nan 1 1 nan nan 6 8 12
7 3 12 nan nan nan nan nan nan 17 23 25 26 15 12 9 12 12 12 10 10 11 15 16 16 13 nan nan nan nan 10 11 nan 20 20 18 nan nan 12 7 nan nan nan nan nan nan 5 9 15
2 2 nan nan nan nan nan nan nan 21 21 22 16 16 10 11 12 12 14 12 16 16 18 18 14 15 14 nan nan nan 11 11 nan 23 20 21 18 nan 12 10 11 nan nan nan nan 2 5 10 15
8 4 nan nan nan nan nan nan nan 27 26 20 20 19 16 15 7 11 18 22 19 20 16 14 13 13 13 15 nan nan nan 12 nan nan 22 19 nan nan nan 14 14 nan nan nan 2 2 8 13 11
2 3 nan nan nan nan nan nan nan nan 31 33 28 18 21 6 5 8 8 14 16 13 10 8 9 13 14 16 16 nan nan nan nan nan nan 23 nan 22 20 17 14 9 nan nan 0 2 6 13 12
5 5 4 nan nan nan nan nan nan nan nan nan 30 25 14 17 4 8 7 8 10 13 10 12 13 11 14 14 17 nan nan nan nan nan nan nan nan nan nan 19 15 11 nan nan nan 3 6 8 7
1 5 1 6 2 8 12 14 nan nan nan nan nan 33 23 15 16 12 15 10 5 15 14 10 10 13 12 12 nan nan nan nan nan nan nan nan nan nan nan nan 15 11 nan nan 5 4 6 7 4
6 7 9 10 13 5 8 1 nan nan nan nan nan nan 27 22 22 15 18 12 11 11 13 9 10 14 13 13 17 19 nan nan nan nan nan nan nan nan nan nan 13 11 7 7 nan 2 5 6 5
14 6 1 8 12 4 9 9 nan 10 nan nan nan nan nan 19 17 12 17 12 5 14 12 11 11 14 13 14 14 15 nan nan nan nan nan nan nan nan nan nan nan nan 10 nan nan 2 3 5 4
nan 15 14 12 10 5 11 13 nan 11 22 nan nan nan 13 17 21 13 17 15 3 10 13 12 13 13 13 11 13 14 16 18 nan nan nan nan nan nan nan nan nan nan nan nan nan 3 2 1 3
18 16 19 14 nan nan nan nan nan nan nan nan nan nan nan 17 14 14 13 14 6 9 13 10 13 12 11 11 10 11 11 13 14 nan nan nan nan nan nan nan nan nan nan nan 8 5 4 3 4
19 21 18 nan nan nan nan nan nan nan nan nan nan nan nan nan 22 17 12 12 16 16 12 10 11 15 11 10 10 10 12 14 17 nan nan nan nan nan nan nan nan nan nan 8 7 4 5 3 3
nan 18 14 nan nan nan 16 nan nan nan nan nan nan nan nan nan nan 17 14 11 11 12 11 9 9 15 15 12 9 12 14 18 18 16 16 nan nan nan nan nan nan nan 10 9 8 7 7 4 6
nan nan nan nan nan nan nan nan nan nan nan nan nan nan nan nan nan 20 15 12 11 11 10 11 11 13 16 13 12 13 17 18 17 16 16 nan 14 12 16 23 21 12 10 9 6 9 7 6 nan
21 21 21 19 nan nan nan nan nan nan nan nan nan nan nan nan nan 14 10 15 11 8 12 10 14 15 17 17 13 16 18 18 17 18 14 nan 11 14 23 24 17 13 14 9 12 9 nan nan nan
nan 14 20 23 19 12 nan nan nan nan nan nan nan nan 9 nan 22 17 12 9 10 10 13 12 16 17 18 16 16 15 17 17 17 15 13 nan 15 17 24 19 17 17 14 12 12 9 nan nan nan
nan nan 25 nan nan nan nan nan nan nan nan nan nan nan 8 17 21 24 14 13 9 8 11 13 17 18 18 12 12 11 15 16 15 14 12 14 15 11 14 18 23 18 13 14 10 nan nan nan nan
Wind_Direction
129 148 155 140 nan nan nan nan nan 149 144 143 178 173 187 165 124 nan 78 64 2 30 27 22 359 346 338 332 324 324 326 329 323 319 331 330 338 346 353 6 35 55 64 81 87 92 88 76 76
138 142 163 145 nan nan nan nan 154 155 137 147 201 179 178 166 167 301 97 6 356 10 16 20 356 351 340 340 329 328 328 328 315 308 333 346 355 358 2 11 38 59 83 89 93 92 89 78 71
150 126 173 157 nan nan nan 154 189 129 39 152 181 182 176 161 210 307 334 331 324 355 0 4 349 349 347 340 335 327 333 333 329 325 332 349 1 10 16 16 22 53 76 91 89 87 94 94 76
177 175 181 nan nan nan nan 191 219 227 194 206 219 197 190 209 326 286 318 314 307 340 344 324 343 339 346 344 335 330 331 331 333 336 343 344 355 19 34 31 34 39 55 73 84 89 94 87 81
133 146 141 nan nan nan 217 178 188 175 196 216 178 198 192 182 279 297 300 302 312 329 358 4 335 319 327 339 333 330 328 325 327 327 341 351 1 31 42 35 40 45 49 nan 86 87 84 80 86
125 115 nan nan nan nan nan 267 270 224 220 263 236 225 187 282 286 287 289 288 294 322 17 15 334 322 328 336 322 324 329 327 330 335 344 2 360 27 34 45 56 47 nan 71 91 81 92 99 91
133 137 110 nan nan nan 74 86 115 291 332 196 314 250 235 264 276 275 287 279 260 228 243 342 328 324 338 322 312 302 316 318 327 331 332 15 4 24 32 50 51 60 67 85 92 107 101 97 92
124 110 84 nan nan 99 50 91 55 9 161 203 331 311 357 334 293 291 264 263 274 272 232 217 214 246 330 356 321 300 304 312 312 321 318 39 42 49 59 70 88 77 83 86 99 88 88 86 79
nan nan 101 nan 56 65 26 72 74 195 353 155 139 265 294 305 286 269 283 275 277 279 254 259 262 264 240 255 241 286 276 275 285 304 316 118 135 117 112 93 92 101 113 110 103 98 87 92 97
180 nan 74 nan 10 15 22 6 13 60 289 174 248 283 305 311 314 332 343 335 313 286 278 269 249 245 250 249 265 242 225 221 230 206 201 210 158 127 120 113 120 110 99 101 94 94 98 67 24
147 nan nan nan nan 346 344 314 7 329 87 40 341 323 321 319 324 333 345 354 341 298 294 275 260 244 254 250 185 220 209 212 220 213 202 211 188 152 148 148 132 101 96 42 19 30 35 30 15
149 74 118 nan nan 355 335 308 309 327 33 346 338 333 334 341 352 352 12 17 344 325 325 305 275 268 244 233 230 239 213 218 215 215 214 209 200 175 176 172 108 119 92 nan 35 8 45 16 17
22 66 114 nan nan nan 351 350 276 7 313 330 324 335 340 341 357 1 12 8 355 350 336 337 285 281 265 246 226 227 224 231 230 210 214 215 197 193 nan nan nan nan 153 61 322 349 25 2 8
94 67 81 nan nan nan nan 15 nan 344 338 340 343 349 341 335 339 324 339 327 338 334 335 322 308 275 nan nan 239 237 243 236 225 205 204 202 nan nan 210 212 206 nan 190 186 nan nan 10 335 359
68 176 69 nan nan nan nan nan nan 348 354 347 345 6 338 337 327 334 323 319 317 315 312 319 309 288 nan nan nan nan 216 212 nan 202 199 200 nan nan 226 211 nan nan nan nan nan nan 345 328 5
277 301 nan nan nan nan nan nan nan 338 337 349 354 12 22 348 336 306 302 297 300 293 304 299 300 289 270 nan nan nan 221 238 nan 201 201 206 209 nan 233 230 221 nan nan nan nan 304 333 348 9
190 71 nan nan nan nan nan nan nan 339 350 3 12 15 343 342 312 318 315 302 300 294 293 298 301 293 280 262 nan nan nan 224 nan nan 212 220 nan nan nan 231 235 nan nan nan 226 9 342 359 27
115 223 nan nan nan nan nan nan nan nan 357 2 358 21 13 30 3 324 335 318 320 307 306 303 281 284 279 263 249 nan nan nan nan nan nan 217 nan 221 225 227 231 231 nan nan 186 0 9 5 20
201 298 293 nan nan nan nan nan nan nan nan nan 344 2 350 6 326 294 320 317 323 313 315 311 287 292 277 263 263 nan nan nan nan nan nan nan nan nan nan 221 217 220 nan nan nan 340 2 28 31
4 243 213 250 5 315 331 355 nan nan nan nan nan 326 338 313 288 270 313 303 319 315 319 309 293 291 279 254 nan nan nan nan nan nan nan nan nan nan nan nan 212 217 nan nan 231 285 353 32 45
236 271 266 271 255 250 250 151 nan nan nan nan nan nan 322 315 295 297 293 316 321 329 324 315 301 288 280 253 237 234 nan nan nan nan nan nan nan nan nan nan 211 214 239 240 nan 357 331 15 64
197 225 256 267 265 264 245 155 nan 305 nan nan nan nan nan 318 316 301 296 307 14 344 321 300 292 292 279 270 252 238 nan nan nan nan nan nan nan nan nan nan nan nan 229 nan nan 148 353 353 85
nan 232 247 268 281 271 280 260 nan 299 326 nan nan nan 323 307 331 289 299 328 2 307 307 299 288 291 286 273 254 247 229 228 nan nan nan nan nan nan nan nan nan nan nan nan nan 172 95 133 95
261 228 249 247 nan nan nan nan nan nan nan nan nan nan nan 340 310 261 281 306 303 289 285 291 305 303 295 278 256 252 245 228 213 nan nan nan nan nan nan nan nan nan nan nan 174 200 109 143 97
253 234 261 nan nan nan nan nan nan nan nan nan nan nan nan nan 301 297 296 302 289 298 289 299 312 300 290 291 265 247 237 231 214 nan nan nan nan nan nan nan nan nan nan 172 177 180 144 133 97
nan 281 273 nan nan nan 285 nan nan nan nan nan nan nan nan nan nan 346 329 320 312 306 296 304 308 293 284 274 279 255 237 228 223 218 221 nan nan nan nan nan nan nan 184 185 202 176 151 176 127
nan nan nan nan nan nan nan nan nan nan nan nan nan nan nan nan nan 346 337 323 316 307 315 320 295 282 285 276 264 255 237 229 222 226 219 nan 211 214 202 178 184 194 190 204 220 173 172 163 nan
249 268 258 247 nan nan nan nan nan nan nan nan nan nan nan nan nan 345 343 344 313 317 295 301 298 297 291 281 271 257 240 226 219 225 223 nan 209 208 197 184 193 197 204 218 199 172 nan nan nan
nan 250 259 278 283 323 nan nan nan nan nan nan nan nan 355 nan 325 323 306 280 278 297 299 309 306 307 300 303 283 260 227 218 213 215 220 nan 208 212 193 194 200 202 195 211 191 176 nan nan nan
nan nan 280 nan nan nan nan nan nan nan nan nan nan nan 345 315 328 325 321 278 275 291 290 323 319 327 322 298 267 249 220 216 211 212 216 220 209 212 213 229 203 198 199 195 180 nan nan nan nan